Malmstrom AFB, MT

2:16 AM MDT on October 19, 2019 (GMT -0600)
Malmstrom AFB

Weather History for KGFA - September, 2019

Change the Weather History Date:

Monday, September 16, 2019

  Actual Average (WUND) Record (WUND)
Temperature  
Mean Temperature 65 °F -  
Max Temperature 81 °F - - (-1)
Min Temperature 51 °F - - (-1)
Growing Degree Days 15 (Base 50)    
Moisture  
Dew Point 41 °F    
Average Humidity 42    
Maximum Humidity 65    
Minimum Humidity 24    
Precipitation  
Precipitation 0.00 in - - ()
Sea Level Pressure  
Sea Level Pressure 29.64 in    
Wind  
Wind Speed 7 mph ()    
Max Wind Speed 16 mph    
Max Gust Speed -    
Visibility 10.0 miles    
Events      
Averages and records for this station are not official NWS values.
T = Trace of Precipitation, MM = Missing Value Source: Averaged Metar Reports

Daily Weather History Graph

Daily Weather History Graph

Search for Another Location

Airport or City:

Astronomy

Sep. 16, 2019 Rise Set
Actual Time 7:03 AM MDT 7:35 PM MDT
Civil Twilight 6:32 AM MDT 8:05 PM MDT
Nautical Twilight 5:55 AM MDT 8:42 PM MDT
Astronomical Twilight 5:17 AM MDT 9:20 PM MDT
Moon 9:02 PM MDT (9/16) 9:20 AM MDT (9/16)
Length of Visible Light 13h 33m
Length of Day
12h 31m
Waning Gibbous, 94% of the Moon is Illuminated
Sep 16
Waning Gibbous
Sep 21
Last Quarter
Sep 28
New
Oct 5
First Quarter
Oct 13
Full

Hourly Weather History & Observations

Time (MDT) Temp. Dew Point Humidity Pressure Visibility Wind Dir Wind Speed Gust Speed Precip Events Conditions
12:58 AM 68.4 °F 34.9 °F 29% 29.58 in 10.0 mi WSW 13.8 mph - N/A   Clear
1:58 AM 60.3 °F 40.3 °F 48% 29.62 in 10.0 mi SW 12.7 mph - N/A   Clear
2:58 AM 61.0 °F 39.4 °F 45% 29.62 in 10.0 mi WSW 9.2 mph - N/A   Clear
3:58 AM 57.7 °F 40.3 °F 52% 29.62 in 10.0 mi WSW 6.9 mph - N/A   Partly Cloudy
4:58 AM 51.4 °F 40.1 °F 65% 29.65 in 10.0 mi South 6.9 mph - N/A   Scattered Clouds
5:58 AM 53.1 °F 40.3 °F 62% 29.64 in 10.0 mi SSW 4.6 mph - N/A   Scattered Clouds
6:58 AM 52.2 °F 40.6 °F 65% 29.66 in 10.0 mi SSW 4.6 mph - N/A   Mostly Cloudy
7:58 AM 54.0 °F 42.4 °F 65% 29.69 in 10.0 mi SSW 4.6 mph - N/A   Mostly Cloudy
8:58 AM 56.7 °F 42.8 °F 60% 29.71 in 10.0 mi West 4.6 mph - N/A   Mostly Cloudy
9:58 AM 59.7 °F 43.2 °F 54% 29.69 in 10.0 mi West 4.6 mph - N/A   Mostly Cloudy
10:58 AM 63.0 °F 43.2 °F 48% 29.69 in 10.0 mi WSW 4.6 mph - N/A   Mostly Cloudy
11:58 AM 70.7 °F 41.0 °F 34% 29.66 in 10.0 mi Calm Calm - N/A   Mostly Cloudy
12:58 PM 75.0 °F 42.4 °F 31% 29.62 in 10.0 mi West 3.5 mph - N/A   Mostly Cloudy
1:58 PM 78.8 °F 39.4 °F 24% 29.60 in 10.0 mi West 4.6 mph - N/A   Mostly Cloudy
2:58 PM 79.9 °F 39.7 °F 24% 29.59 in 10.0 mi ENE 6.9 mph - N/A   Mostly Cloudy
3:58 PM 77.4 °F 40.8 °F 27% 29.59 in 10.0 mi NE 12.7 mph - N/A   Scattered Clouds
4:58 PM 77.0 °F 41.4 °F 28% 29.59 in 10.0 mi NE 11.5 mph - N/A   Mostly Cloudy
5:58 PM 77.0 °F 39.9 °F 26% 29.58 in 10.0 mi NE 16.1 mph - N/A   Partly Cloudy
6:58 PM 70.9 °F 39.7 °F 32% 29.60 in 10.0 mi NE 10.4 mph - N/A   Clear
7:58 PM 67.3 °F 40.3 °F 37% 29.61 in 10.0 mi NE 5.8 mph - N/A   Clear
8:58 PM 63.7 °F 42.1 °F 45% 29.64 in 10.0 mi ESE 4.6 mph - N/A   Mostly Cloudy
9:58 PM 66.4 °F 42.1 °F 41% 29.65 in 10.0 mi WNW 9.2 mph - N/A   Mostly Cloudy
10:58 PM 66.2 °F 39.0 °F 37% 29.67 in 10.0 mi NNW 10.4 mph - N/A   Mostly Cloudy
11:58 PM 65.1 °F 39.0 °F 38% 29.68 in 10.0 mi NW 9.2 mph - N/A   Scattered Clouds